Regional Weather Roundup
Issued by NWS

Home | Current Version | Previous Version | Graphics & Text | Print | Product List | Glossary Off
Versions: 1 2 3 4 5 6 7 8 9 10 11 12 13 14 15 16 17 18 19 20 21 22 23 24 25 26 27 28 29 30 31 32 33 34 35 36 37 38 39 40 41 42 43 44 45 46 47 48 49 50

000
ASUS43 KMKX 311000
RWRWI

WISCONSIN REGIONAL WEATHER ROUNDUP
NATIONAL WEATHER SERVICE MILWAUKEE/SULLIVAN WI
500 AM CDT SUN AUG 31 2014

NOTE: "FAIR" INDICATES FEW OR NO CLOUDS BELOW 12,000 FEET WITH NO
SIGNIFICANT WEATHER AND/OR OBSTRUCTIONS TO VISIBILITY.

WIZ001-002-006>008-014>016-023>028-311100-
NORTHWEST WISCONSIN

CITY           SKY/WX    TMP DP  RH WIND       PRES   REMARKS
SUPERIOR ARPT  CLOUDY    58  57  98 CALM      29.89F
ASHLAND        CLOUDY    51  51 100 CALM      29.93S FOG
HAYWARD        CLEAR     54  53  97 CALM      29.92S
SIREN          CLEAR     58  57  97 SE6       29.88F
RICE LAKE      CLEAR     57  55  93 CALM      29.91F
LADYSMITH      CLEAR     54  53  96 E5        29.93F FOG
EAU CLAIRE     PTCLDY    55  55 100 NE5       29.89F
MENOMONIE      FOG       58  58  99 E5        29.89F VSB<1/4
NEW RICHMOND   PTCLDY    58  58 100 E7        29.87F
OSCEOLA        CLOUDY    60  60 100 E8        29.89F
$$

WIZ003>005-009-010-017-018-311100-
NORTH CENTRAL WISCONSIN

CITY           SKY/WX    TMP DP  RH WIND       PRES   REMARKS
WOODRUFF       FOG       52  51  95 CALM      29.96R VSB 1/2
RHINELANDER    FOG       51  51 100 CALM      29.96R VSB 1/4
EAGLE RIVER    FOG      N/A N/A N/A CALM      29.95R VSB<1/4
LAND O LAKES   FOG       54  54 100 CALM      29.96R VSB 1/4
PHILLIPS       FOG       49  49 100 CALM      29.94F VSB 1/2
TOMAHAWK       FOG       51  50  97 CALM      29.95S VSB<1/4
MEDFORD        CLOUDY    54  54 100 CALM      29.94S
MERRILL        FOG       51  51 100 CALM      29.94S VSB<1/4
$$

WIZ029-030-035-036-043>047-311100-
CENTRAL WISCONSIN

CITY           SKY/WX    TMP DP  RH WIND       PRES   REMARKS
WAUSAU         CLOUDY    60  57  89 E3        29.92F
MOSINEE        CLOUDY    59  59 100 E3        29.95S
MARSHFIELD     MOCLDY    61  58  90 E5        29.93S
STEVENS POINT  CLOUDY    60  60  97 CALM      29.94S
WAUPACA        CLOUDY    64  63  94 CALM      29.93S
WAUTOMA        NOT AVBL
WISC RAPIDS    FOG       59  59 100 CALM      29.94S VSB 3/4
CAMP DOUGLAS   MOCLDY    61  61 100 NW2       29.93R FOG
$$

WIZ011>013-019>022-031-037>040-048>050-311100-
NORTHEAST WISCONSIN

CITY           SKY/WX    TMP DP  RH WIND       PRES   REMARKS
ANTIGO         MOCLDY    52  52 100 CALM      29.95F
STURGEON BAY   CLOUDY    61  57  88 W3        29.93R
GREEN BAY      CLOUDY    63  60  90 NW3       29.94R
MANITOWOC      NOT AVBL
APPLETON       CLOUDY    63  61  94 N3        29.94R
CLINTONVILLE   CLOUDY    63  59  88 CALM      29.93R
OSHKOSH        CLOUDY    64  63  96 NW3       29.92R
$$

WIZ032>034-041-042-053>061-311100-
SOUTHWEST WISCONSIN

CITY           SKY/WX    TMP DP  RH WIND       PRES   REMARKS
LA CROSSE      CLOUDY    64  62  93 E6        29.90F
SPARTA         CLOUDY    60  59  97 CALM      29.93S
VIROQUA        FAIR      63  63 100 E3        29.93S
BOSCOBEL       FOG       66  64  93 CALM      29.91F VSB 1/4
PRAIRIE DU CHI FOG       63  61  95 CALM      29.90F VSB 3/4
PLATTEVILLE    FAIR      63  62  97 CALM      29.93S
$$

WIZ056-057-062-063-064-067-068-311100-
SOUTH CENTRAL WISCONSIN

CITY           SKY/WX    TMP DP  RH WIND       PRES   REMARKS
BARABOO/DELLS  CLOUDY    65  63  93 CALM      29.92F
LONE ROCK      NOT AVBL
WATERTOWN      FOG       62  62 100 CALM      29.91S VSB 1/2
MADISON        FOG       61  60  97 CALM      29.92S VSB 1/4
MIDDLETON      CLOUDY    61  61 100 CALM      29.93S VSB 1/4
MONROE         PTCLDY    63  63 100 SW5       29.93S FOG
JANESVILLE     CLEAR     63  61  94 CALM      29.92R FOG
$$

WIZ051-052-058>065-066-070>072-311100-
SOUTHEAST WISCONSIN

CITY           SKY/WX    TMP DP  RH WIND       PRES   REMARKS
MILWAUKEE      MOCLDY    64  63  96 CALM      29.92R
WAUKESHA       FOG       61  61 100 CALM      29.94R VSB 1/4
MILWAUKEE/TIMM CLOUDY    64  63  94 CALM      29.93R FOG
RACINE         CLEAR     65  64  97 W3        29.94R
BURLINGTON     FOG       58  58 100 CALM      29.92S VSB 1/2
KENOSHA        FOG       62  62 100 CALM      29.93S VSB 1/4
FOND DU LAC    PTCLDY    63  61  93 CALM      29.93R
SHEBOYGAN      CLOUDY    65  63  93 E3        29.93R
WEST BEND      FOG       63  61  94 CALM      29.93R VSB 1/2
JUNEAU         FOG       61  61  99 CALM      29.93S VSB<1/4
$$

LSZ147-162-311100-
LAKE SUPERIOR

STATION/POSITION TIME  TEMP    WIND        PRES    WAVE
                       AIR SEA DIR/SP/G            HT/PER
                 (UTC) (F)     (DEG/KT/KT) (MB)    (FT/S)
W MID LAKE BUOY  0850   58 58  310/  6/  6 1013.4R   0
DEVILS ISLAND    0900   60      10/  1/  2 1013.8R
PORT WING        0900   55     120/  2/  3 1013.5S
SAXON HARBOR     0900   53     210/  2/  4 1014.2R
$$

LMZ867-665-643>646-311100-
LAKE MICHIGAN

STATION/POSITION TIME  TEMP    WIND        PRES    WAVE
                       AIR SEA DIR/SP/G            HT/PER
                 (UTC) (F)     (DEG/KT/KT) (MB)    (FT/S)
N MID LAKE BUOY  0850   62 65  310/  8/ 10 1012.0R
NORTHPORT PIER   0900   63     330/  6/  9 1012.2S
SISTER BAY       0856   63        CALM       N/A
KEWAUNEE LAKESHO 0900   61      CALM  /  1 1012.0R
SHEBOYGAN LAKESH 0900   63 52   10/  4/  4 1012.9R
ATWATER BUOY     0900   66     340/  6/  6 1014.1R
MILWAUKEE LAKESH 0900   68      20/  3/  4   N/A
S MID LAKE BUOY  0850   70 69  240/  8/  8 1012.6R   1
KENOSHA   LAKESH 0800   70     260/  5/  6 1012.5R
$$

TC  - TEMPERATURE IN CELSIUS
VSB - VISIBILITY IN STATUTE MILES
WCI - WIND CHILL INDEX
HX  - HEAT INDEX




USA.gov is the U.S. government's official web portal to all federal, state and local government web resources and services.